OPS 5798 DEB, 903

Orbit data source: Space-Track

OPS 5798 DEB, 903 is space debris in LEO originally from a launch on Tue, 06 Oct 1964 UTC launched from the Air Force Western Test Range (AFWTR). Debris objects in space refer to the collection of defunct objects orbiting the Earth. Examples of debris include non-operational satellites, rocket bodies, and fragments generated from explosions, collisions, or faulty payload assembly.

Loading next visibility...
Identifier
903, 1964-063F
Orbit
LEO
Country
Flag of USUS
Related business
Manufacturer
Unknown
Mission
Spacecraft
Bus & Motor
Unknown
Mass
Unknown
Launch date (UTC)
1964-10-06 (61 years ago)
Launch vehicle
Unknown
Launch site
Air Force Western Test Range (AFWTR)
Object type
Payload
Rocket body
Debris
Shape & HBR
Unknown shape, 0.1 m
Radar Cross Section
Small (<0.1 m²)

Expand to show TLE details & history
Last TLE update: 1 day ago

TLE from 1 day ago
0 OPS 5798 DEB
1 00903U 64063F   25351.23424986  .00000772  00000-0  72902-3 0  9994
2 00903  90.2232  66.8151 0020338 301.8140 112.8267 13.80440552 49262
Epoch: 2025-12-17T05:37Z
TLE epoch observation values (Epoch: 2025-12-17T05:37:19.187Z)
Latitude
54.94989°
Longitude
-103.9384°
Altitude
977.325 km
Speed
7.365 km/s
True Right ascension
04h 25m 59s
True Declination
54° 47' 34"
Sunlit
Object was in full shadow at epoch
Visualization orbit readout
Latitude
Unknown
Longitude
Unknown
Altitude
Unknown
Speed
Unknown
Apparent Right ascension
Unknown
Apparent Declination
Unknown
Sunlit
N/A
Visualization observer readout
Local Sidereal Time
06:50:39
Azimuth
Unknown
Elevation
Unknown
Doppler factor
Unknown
Orbital elements
Apogee altitude
974.253 km
Perigee altitude
944.407 km
Semi-major axis
7,337.467 km
Eccentricity
0.00203
Inclination
90.2232°
RAAN
66.8151°
Arg. of periapsis
301.814°
True anomaly
113.04129°
Mean anomaly
112.8267°
Eccentric anomaly
112.93402°
Mean motion
3.45322 °/min
Orbital period
104.25 mins
BSTAR
0.00072902
Loading maneuver chart data...
Computing Atmospheric mass density...
Loading historical data...
Loading historical data...
Loading historical data...
Loading historical data...
Loading historical data...
Loading historical data...
Loading historical data...

Documentation

Showing up to 5 results
|